Location: Jonesport
(44.5330°N, 67.5990°W)
Time: 00:26:07
(UTC-04:00)

Iridium 35 - Visible Passes

Search period start: 02 April 2015 00:00
Search period end: 12 April 2015 00:00
Orbit: 776 x 779 km, 86.4° (Epoch: 01 April)

Date Brightness Start Highest point End Pass type
(mag) Time Alt. Az. Time Alt. Az. Time Alt. Az.
02 Apr 6.0 19:35:00 10° NNW 19:40:05 54° W 19:45:08 10° SSW visible
03 Apr 8.3 20:44:32 10° NW 20:46:40 12° WNW 20:48:31 10° W visible
04 Apr 7.8 20:09:27 10° NNW 20:13:26 22° W 20:17:16 10° SW visible
05 Apr 6.8 19:35:18 10° NNW 19:40:06 38° W 19:44:52 10° SSW visible
07 Apr 8.2 20:10:16 10° NW 20:13:22 16° WNW 20:16:14 10° WSW visible
08 Apr 7.6 19:35:43 10° NNW 19:40:06 27° W 19:44:22 10° SW visible
10 Apr 8.7 20:11:59 10° WNW 20:13:15 11° WNW 20:14:12 10° W visible
11 Apr 8.1 19:36:19 10° NW 19:40:03 19° W 19:43:36 10° WSW visible
